KINEIS-5D

Last updated on Sun Apr 12 2026 00:02:47 GMT+0000 (Coordinated Universal Time)

1 62082U 24219B 26101.49061071 -.00000392 00000+0 -54395-4 0 9999 2 62082 97.9116 262.1405 0005964 118.0257 242.1555 14.72330292 73941
UTC large
Height (km)
Speed (km/s)
/
Latitude / Longitude
Inclination (degrees)
Orbital Period (minutes)
Azimuth
Elevation
Range (km)
Doppler Factor

Next 0 passes for location: London (51.5072 / 0.1276)

Sorry there are no passes over London.
KINEIS-5D